EST,Max TemperatureF,Mean TemperatureF,Min TemperatureF,Max Dew PointF,MeanDew PointF,Min DewpointF,Max Humidity, Mean Humidity, Min Humidity, Max Sea Level PressureIn, Mean Sea Level PressureIn, Min Sea Level PressureIn, Max VisibilityMiles, Mean VisibilityMiles, Min VisibilityMiles, Max Wind SpeedMPH, Mean Wind SpeedMPH, Max Gust SpeedMPH,PrecipitationIn, CloudCover, Events, WindDirDegrees
2012-11-1,48,45,41,39,38,37,76,71,66,29.67,29.62,29.58,10,10,10,12,8,,0.00,7,,270
2012-11-2,48,44,39,37,34,32,76,69,61,29.84,29.72,29.67,20,12,10,14,11,24,0.00,6,Rain,296
2012-11-3,48,45,41,30,29,28,62,56,49,30.02,29.93,29.84,20,13,10,18,10,25,0.00,8,,311
2012-11-4,46,41,35,28,27,27,59,56,53,30.04,30.02,30.00,10,10,10,12,9,21,0.00,7,,318
2012-11-5,43,39,35,27,25,21,64,57,49,30.19,30.08,30.02,20,12,10,15,9,21,0.00,8,,350
2012-11-6,43,34,25,26,23,20,92,69,45,30.25,30.17,30.08,10,10,10,8,2,10,0.00,2,,37
2012-11-7,44,39,33,29,24,19,70,57,44,30.07,29.96,29.89,10,10,8,20,10,25,T,5,Snow,15
2012-11-8,51,44,36,21,19,16,48,38,27,30.04,29.93,29.87,10,10,10,25,14,36,0.00,4,,327
2012-11-9,54,44,33,33,29,19,82,63,44,30.25,30.15,30.04,10,10,10,20,8,25,0.00,0,,312
2012-11-10,57,45,32,39,36,31,96,74,51,30.41,30.33,30.25,10,9,6,5,1,7,T,3,,350
2012-11-11,67,52,36,46,41,34,92,66,39,30.49,30.44,30.40,10,8,3,10,1,13,0.00,1,,151
2012-11-12,68,54,40,58,49,39,100,80,59,30.44,30.31,30.13,10,8,2,17,6,25,T,2,,160
2012-11-13,63,51,39,57,37,27,93,70,46,30.49,30.33,30.13,10,9,3,33,10,41,0.55,6,Rain,323
2012-11-14,48,39,30,29,25,23,85,64,42,30.57,30.51,30.47,10,10,10,13,5,17,0.00,3,,33
2012-11-15,46,38,30,30,27,24,89,69,49,30.46,30.40,30.32,10,10,10,8,2,10,0.00,0,,350
2012-11-16,50,41,32,31,28,24,89,64,39,30.48,30.38,30.32,10,10,10,10,2,13,0.00,0,,345
2012-11-17,53,40,27,30,28,25,92,65,38,30.64,30.59,30.48,10,10,10,13,3,16,0.00,0,,359
2012-11-18,50,40,29,36,31,27,92,76,60,30.68,30.62,30.54,10,10,8,10,3,13,0.00,0,,16
2012-11-19,50,41,31,35,32,29,89,71,52,30.55,30.43,30.27,10,10,9,13,5,16,0.00,2,,12
2012-11-20,52,41,30,37,32,29,92,70,48,30.25,30.18,30.13,10,9,2,7,1,8,0.00,1,,342
2012-11-21,54,42,30,34,30,27,92,64,35,30.25,30.21,30.16,10,10,8,12,2,16,0.00,0,,360
2012-11-22,57,42,26,33,29,24,92,65,38,30.30,30.24,30.15,10,9,6,6,0,6,0.00,0,,305
2012-11-23,59,43,27,37,32,26,100,69,37,30.14,29.92,29.75,10,9,5,26,5,36,T,2,,228
2012-11-24,45,39,33,24,21,20,56,49,41,29.96,29.87,29.81,10,10,10,31,17,38,T,6,,290
2012-11-25,39,33,26,22,21,19,69,59,48,30.01,29.97,29.93,10,10,10,20,8,24,0.00,5,,260
2012-11-26,48,38,27,27,24,22,85,61,36,30.27,30.15,30.01,10,10,10,16,5,22,0.00,2,,271
2012-11-27,36,34,31,34,32,26,100,86,72,30.28,30.24,30.20,10,3,0,9,3,13,0.35,8,Fog-Snow,7
2012-11-28,41,35,29,31,25,21,92,71,50,30.35,30.28,30.24,10,10,9,18,5,21,0.00,2,,283
2012-11-29,44,36,27,27,24,20,75,60,45,30.42,30.36,30.33,10,10,8,16,4,21,0.00,1,,241
2012-11-30,47,35,23,30,26,22,92,67,42,30.41,30.38,30.35,10,8,2,8,2,12,0.00,4,,358